Powrót do katalogu

ARIANE 5 R/B

AktywnyGTO
NORAD 26110·ROCKET BODY·🇫🇷 France

Wystrzelony Mar 21, 2000 z Guiana Space Centre

Loading…

TLE

Starzejące sięSource: Space-Track

Epoka: Sep 14, 2026, 03:37 UTC

1 26110U 00016D   26257.15127281 -.00000086  00000-0  21893-2 0  9996
2 26110   7.1318  11.3595 7091481  13.3824 358.2271  2.27195897219861

Śledź ARIANE 5 R/B w czasie rzeczywistym z AllMySat

Download on the App Store